Location: Blairvadach
(56.2780°N, 6.9720°W)
Time: 14:38:16
(UTC+01:00)

OTV 5 (USA 277) - Pass Details

Date: 25 April 2019
Orbit: 310 x 325 km, 54.5° (Epoch: 08 May)

Event Time Altitude Azimuth Distance (km) Brightness Sun altitude
Rises 23:56:43 0° 258° (WSW) 2,036 ? -17.9°
Reaches altitude 10° 23:58:41 10° 254° (WSW) 1,207 ? -18.0°
Enters shadow 23:59:09 14° 252° (WSW) 1,020 ? -18.1°
